Weather in Rovno-Vladimirovka

Russia / Samara Oblast     52°54′45″N   50°22′26″E
temp.,
°C
wind,
m/s
gust,
m/s
humid.,
%
clouds,
%
prec.,
mm/h
press.,
hPa
HPBL,
m
27 february, sat
sat2701:00−8sse81594100 4.1 1003527
04:00−4s6995100 7.5 1000251
07:00+1w51195100 0.1 999392
10:00+1wsw5119899 0.1 999481
13:00+1wsw61110098 0.1 998565
16:00+1wsw6109999 0.1 998563
19:000wsw5998100 0.5 997429
22:000wsw4698100 1.3 998275
28 february, sun
sun2801:00−5nw6995100 0.6 999287
04:00−10nw5109496 0.8 1001378
07:00−12nw5109497 0.1 1003419
10:00−12nw599298 0.2 1006492
13:00−11nw5791100 0.1 1008521
16:00−12nw4791100 0.1 1010523
19:00−16nw3795100 0.1 1012142
22:00−18nw349689 0.1 101552
1 march, mon
mon101:00−19nw339717 0.0 101635
04:00−20nw33978 0.0 101829
07:00−22nw23960 0.0 102026
10:00−19nw24940 0.0 1022185
13:00−15nnw348953 0.0 1022389
16:00−13nnw239077 0.0 1023402
19:00−19n1299100 0.0 102420
22:00−21wsw1110078 0.0 102420
2 march, tue
tue201:00−21wsw23962 0.0 102320
04:00−21sw33998 0.0 102230
07:00−19ssw479962 0.0 1019119
10:00−15ssw6119579 0.0 1016278
13:00−10ssw71294100 0.3 1012464
16:00−6ssw81394100 1.3 1009660
19:00−3ssw71396100 1.4 1005663
22:00−2sw71296100 2.8 1003568
3 march, wed
wed301:00−3sw51097100 0.9 1001359
04:00−4wsw3697100 1.3 1000148
07:00−6w469786 0.1 1000131
10:00−3nw699192 0.5 1002617
13:00−3nw6109096 0.1 1003687
16:00−3nw698993 0.1 1005781
19:00−4nw499399 0.1 1006296
22:00−5wnw5109497 0.1 1008297